sat.trackr.live / text

‹ back to catalog

STARLINK-35036

NORAD 65406 · 2025-192C

PAYLOAD ACTIVE UNKNOWN

§ Identity

Operator
Country
US
Launch date
2025-08-31
Launch site
AFETR
Launch vehicle
Mass (kg)
RCS (m²)

Purposes: comms

External: N2YO · Heavens-Above · Gunter

§ Orbital elements

Epoch: 2026-09-20T14:11:04.636896Z

Period
93.85 min
Inclination
53.1605°
Eccentricity
0.0001101
Mean motion
15.34403562 rev/d
Perigee alt
461.9 km
Apogee alt
463.4 km
Semi-major
6,840.8 km
B*
7.4904e-4
RAAN
44.9881°
Arg perigee
106.3490°
Mean anomaly
253.7634°
Rev number
5,925

§ Raw data

STARLINK-350361 65406U 25192C   26263.59102589  .00025019  00000+0  74904-3 0  99912 65406  53.1605  44.9881 0001101 106.3490 253.7634 15.34403562 59257

JSON: /api/v1/satellites/65406 · /tle

For live sub-satellite position, see the globe view (requires WebGL).

§ Visibility from observer

Set your observer location to see the next 7 days of passes ≥ 10°. The values pass through the URL so the page stays shareable.

No JS? Fill the form by hand. The geolocation button needs JavaScript.